| time (UTC) | temp F | wind direction | speed knots | gust knots | rain 1hr in | rain 24hr in | rain mn in | humidity % | barometer mb |
| 20260510230049 | 78 | 123 | 0.0 | 0.0 | 0.00 | 0.00 | 0.00 | 63 | 1016.5 |
| 20260510224547 | 78 | 126 | 0.0 | 0.0 | 0.00 | 0.00 | 0.00 | 60 | 1016.5 |
| 20260510223046 | 81 | 98 | 1.7 | 4.3 | 0.00 | 0.00 | 0.00 | 58 | 1016.6 |
| 20260510221552 | 82 | 82 | 0.9 | 4.3 | 0.00 | 0.00 | 0.00 | 55 | 1016.7 |
| 20260510220044 | 82 | 112 | 0.0 | 3.5 | 0.00 | 0.00 | 0.00 | 54 | 1016.8 |
| 20260510214544 | 81 | 298 | 0.0 | 0.9 | 0.00 | 0.00 | 0.00 | 56 | 1016.7 |
| 20260510213040 | 80 | 186 | 0.9 | 3.5 | 0.00 | 0.00 | 0.00 | 56 | 1016.8 |
| 20260510211540 | 80 | 226 | 0.9 | 3.5 | 0.00 | 0.00 | 0.00 | 55 | 1016.8 |
| 20260510210038 | 80 | 92 | 0.0 | 1.7 | 0.00 | 0.00 | 0.00 | 57 | 1016.8 |
| 20260510204540 | 81 | 91 | 0.0 | 2.6 | 0.00 | 0.00 | 0.00 | 53 | 1016.8 |
| 20260510203035 | 80 | 188 | 0.0 | 5.2 | 0.00 | 0.00 | 0.00 | 57 | 1016.9 |
| 20260510201537 | 80 | 142 | 0.0 | 4.3 | 0.00 | 0.00 | 0.00 | 56 | 1017.0 |
| 20260510194538 | 80 | 109 | 0.9 | 4.3 | 0.00 | 0.00 | 0.00 | 59 | 1017.2 |
| 20260510193041 | 80 | 137 | 0.0 | 3.5 | 0.00 | 0.00 | 0.00 | 60 | 1017.1 |
| 20260510191529 | 79 | 201 | 0.0 | 0.0 | 0.00 | 0.00 | 0.00 | 57 | 1017.3 |
| 20260510190030 | 79 | 237 | 0.0 | 3.5 | 0.00 | 0.00 | 0.00 | 59 | 1017.4 |
| 20260510184524 | 79 | 129 | 0.9 | 4.3 | 0.00 | 0.00 | 0.00 | 61 | 1017.6 |
| 20260510183039 | 80 | 211 | 0.9 | 3.5 | 0.00 | 0.00 | 0.00 | 59 | 1017.6 |
| 20260510181526 | 77 | 98 | 0.0 | 6.1 | 0.00 | 0.00 | 0.00 | 62 | 1017.7 |
| 20260510180017 | 78 | 79 | 0.0 | 3.5 | 0.00 | 0.00 | 0.00 | 65 | 1017.8 |
| 20260510174517 | 78 | 148 | 0.0 | 2.6 | 0.00 | 0.00 | 0.00 | 61 | 1018.1 |
| 20260510173014 | 77 | 221 | 0.0 | 6.1 | 0.00 | 0.00 | 0.00 | 64 | 1018.4 |
| 20260510171512 | 78 | 242 | 0.9 | 5.2 | 0.00 | 0.00 | 0.00 | 63 | 1018.5 |
| 20260510170010 | 77 | 194 | 1.7 | 4.3 | 0.00 | 0.00 | 0.00 | 65 | 1018.6 |
| 20260510164513 | 77 | 88 | 0.0 | 3.5 | 0.00 | 0.00 | 0.00 | 67 | 1018.7 |
| 20260510163004 | 75 | 123 | 0.9 | 5.2 | 0.00 | 0.00 | 0.00 | 71 | 1018.8 |
| 20260510161501 | 74 | 259 | 1.7 | 4.3 | 0.00 | 0.00 | 0.00 | 70 | 1018.7 |
| 20260510160059 | 75 | 79 | 0.0 | 2.6 | 0.00 | 0.00 | 0.00 | 73 | 1018.7 |
| 20260510154557 | 73 | 77 | 0.9 | 7.0 | 0.00 | 0.00 | 0.00 | 74 | 1018.6 |
| 20260510153053 | 72 | 84 | 0.0 | 0.9 | 0.00 | 0.00 | 0.00 | 76 | 1018.7 |
| 20260510151551 | 71 | 93 | 0.0 | 2.6 | 0.00 | 0.00 | 0.00 | 77 | 1018.8 |
| 20260510150048 | 70 | 113 | 0.0 | 0.9 | 0.00 | 0.00 | 0.00 | 79 | 1018.8 |
| 20260510144548 | 69 | 119 | 0.0 | 1.7 | 0.00 | 0.00 | 0.00 | 82 | 1018.9 |
| 20260510143040 | 67 | 149 | 0.0 | 0.0 | 0.00 | 0.00 | 0.00 | 84 | 1019.0 |
| 20260510141539 | 66 | 92 | 0.0 | 2.6 | 0.00 | 0.00 | 0.00 | 87 | 1019.1 |
| 20260510140034 | 66 | 323 | 0.0 | 0.0 | 0.00 | 0.00 | 0.00 | 89 | 1019.1 |
| 20260510134533 | 65 | 323 | 0.0 | 0.0 | 0.00 | 0.00 | 0.00 | 89 | 1019.1 |
| 20260510133039 | 65 | 323 | 0.0 | 0.0 | 0.00 | 0.00 | 0.00 | 90 | 1018.9 |
| 20260510131529 | 65 | 314 | 0.0 | 0.0 | 0.00 | 0.00 | 0.00 | 90 | 1018.7 |
| 20260510130028 | 64 | 314 | 0.0 | 0.0 | 0.00 | 0.00 | 0.00 | 91 | 1018.5 |
| 20260510124525 | 64 | 5 | 0.0 | 2.6 | 0.00 | 0.00 | 0.00 | 91 | 1018.4 |
| 20260510123023 | 64 | 5 | 0.0 | 1.7 | 0.00 | 0.00 | 0.00 | 91 | 1018.2 |
| 20260510121520 | 64 | 5 | 0.0 | 0.0 | 0.00 | 0.00 | 0.00 | 92 | 1017.8 |
| 20260510120022 | 63 | 360 | 0.0 | 0.0 | 0.00 | 0.00 | 0.00 | 92 | 1017.4 |
| 20260510114522 | 63 | 360 | 0.0 | 1.7 | 0.00 | 0.00 | 0.00 | 92 | 1017.4 |
| 20260510113013 | 63 | 126 | 0.0 | 0.9 | 0.00 | 0.00 | 0.00 | 92 | 1017.0 |
| 20260510111512 | 63 | 342 | 0.0 | 0.0 | 0.00 | 0.00 | 0.00 | 92 | 1016.7 |
| 20260510110011 | 63 | 339 | 0.0 | 0.0 | 0.00 | 0.00 | 0.00 | 92 | 1016.6 |
| 20260510104510 | 63 | 339 | 0.0 | 0.0 | 0.00 | 0.00 | 0.00 | 92 | 1016.5 |
| 20260510103009 | 63 | 344 | 0.0 | 0.9 | 0.00 | 0.00 | 0.00 | 92 | 1016.2 |
| 20260510101505 | 63 | 339 | 1.7 | 3.5 | 0.00 | 0.00 | 0.00 | 92 | 1016.1 |
| 20260510100007 | 63 | 339 | 0.0 | 3.5 | 0.00 | 0.00 | 0.00 | 92 | 1015.9 |
| 20260510094506 | 63 | 340 | 0.0 | 0.0 | 0.00 | 0.00 | 0.00 | 92 | 1015.7 |
| 20260510093101 | 63 | 340 | 0.0 | 1.7 | 0.00 | 0.00 | 0.00 | 92 | 1015.4 |
| 20260510091601 | 63 | 275 | 0.0 | 0.0 | 0.00 | 0.00 | 0.00 | 92 | 1015.4 |
| 20260510084558 | 62 | 275 | 0.0 | 0.0 | 0.00 | 0.01 | 0.00 | 92 | 1015.1 |
| 20260510083057 | 62 | 275 | 0.0 | 0.0 | 0.00 | 0.01 | 0.00 | 92 | 1015.1 |
| 20260510081556 | 62 | 275 | 0.0 | 0.0 | 0.00 | 0.01 | 0.00 | 92 | 1014.9 |
| 20260510080059 | 62 | 275 | 0.0 | 0.0 | 0.00 | 0.01 | 0.00 | 92 | 1014.9 |
| 20260510074554 | 62 | 275 | 0.0 | 0.0 | 0.00 | 0.01 | 0.00 | 92 | 1014.8 |
| 20260510073106 | 62 | 275 | 0.0 | 0.0 | 0.00 | 0.01 | 0.00 | 92 | 1014.7 |
| 20260510071559 | 61 | 275 | 0.0 | 0.0 | 0.00 | 0.01 | 0.00 | 92 | 1014.8 |
| 20260510070049 | 62 | 275 | 0.0 | 0.0 | 0.00 | 0.01 | 0.00 | 92 | 1014.9 |
| 20260510064555 | 62 | 275 | 0.0 | 0.0 | 0.00 | 0.01 | 0.00 | 92 | 1015.0 |
| 20260510063048 | 62 | 275 | 0.0 | 0.0 | 0.00 | 0.01 | 0.00 | 92 | 1015.0 |
| 20260510061549 | 62 | 275 | 0.0 | 1.7 | 0.00 | 0.01 | 0.00 | 92 | 1015.1 |
| 20260510060044 | 61 | 275 | 0.0 | 0.0 | 0.00 | 0.01 | 0.00 | 92 | 1015.3 |
| 20260510054543 | 61 | 275 | 0.0 | 0.0 | 0.00 | 0.01 | 0.00 | 92 | 1015.3 |
| 20260510053041 | 62 | 275 | 0.0 | 0.0 | 0.00 | 0.01 | 0.00 | 91 | 1015.4 |
| 20260510051544 | 61 | 275 | 0.0 | 0.0 | 0.00 | 0.01 | 0.00 | 91 | 1015.4 |
| 20260510050041 | 62 | 275 | 0.0 | 0.0 | 0.00 | 0.01 | 0.00 | 91 | 1015.5 |
| 20260510044546 | 62 | 275 | 0.0 | 0.0 | 0.00 | 0.01 | 0.01 | 91 | 1015.4 |
| 20260510043037 | 62 | 275 | 0.0 | 0.0 | 0.00 | 0.01 | 0.01 | 91 | 1015.4 |
| 20260510041536 | 63 | 275 | 0.0 | 0.0 | 0.00 | 0.01 | 0.01 | 91 | 1015.5 |
| 20260510040036 | 63 | 275 | 0.0 | 0.0 | 0.00 | 0.01 | 0.01 | 91 | 1015.5 |
| 20260510034537 | 63 | 275 | 0.0 | 0.0 | 0.00 | 0.01 | 0.01 | 91 | 1015.6 |
| 20260510033034 | 64 | 275 | 0.0 | 0.0 | 0.00 | 0.01 | 0.01 | 90 | 1015.5 |
| 20260510031536 | 64 | 275 | 0.0 | 0.0 | 0.00 | 0.01 | 0.01 | 90 | 1015.5 |
| 20260510030034 | 65 | 275 | 0.0 | 0.0 | 0.00 | 0.01 | 0.01 | 90 | 1015.6 |
| 20260510024533 | 65 | 275 | 0.0 | 0.0 | 0.00 | 0.01 | 0.01 | 90 | 1015.3 |
| 20260510023033 | 66 | 275 | 0.0 | 0.0 | 0.00 | 0.01 | 0.01 | 89 | 1015.1 |
| 20260510021536 | 66 | 275 | 0.0 | 0.0 | 0.00 | 0.01 | 0.01 | 89 | 1015.1 |
| 20260510020028 | 66 | 275 | 0.0 | 0.0 | 0.00 | 0.01 | 0.01 | 88 | 1014.7 |
| 20260510014529 | 67 | 275 | 0.0 | 3.5 | 0.00 | 0.01 | 0.01 | 87 | 1014.6 |
| 20260510013027 | 67 | 275 | 0.0 | 2.6 | 0.00 | 0.01 | 0.01 | 87 | 1014.3 |
| 20260510011529 | 67 | 275 | 0.0 | 0.0 | 0.00 | 0.01 | 0.01 | 86 | 1014.0 |
| 20260510010027 | 68 | 275 | 0.0 | 0.0 | 0.00 | 0.01 | 0.01 | 85 | 1013.7 |
| 20260510004526 | 68 | 275 | 0.0 | 0.0 | 0.00 | 0.01 | 0.01 | 84 | 1013.6 |
| 20260510003028 | 69 | 275 | 0.0 | 0.0 | 0.00 | 0.01 | 0.01 | 83 | 1013.5 |
| 20260510001525 | 70 | 275 | 0.0 | 0.0 | 0.00 | 0.01 | 0.01 | 81 | 1013.4 |
| 20260510000025 | 70 | 275 | 0.0 | 0.0 | 0.00 | 0.01 | 0.01 | 80 | 1013.2 |
| 20260509234532 | 71 | 262 | 0.0 | 2.6 | 0.00 | 0.01 | 0.01 | 79 | 1013.1 |
| 20260509233023 | 71 | 261 | 0.0 | 2.6 | 0.00 | 0.01 | 0.01 | 77 | 1012.9 |
| 20260509231523 | 72 | 261 | 0.0 | 0.9 | 0.00 | 0.01 | 0.01 | 76 | 1012.8 |